COSMOS 1275 DEB, 13073

Orbit data source: Space-Track

COSMOS 1275 DEB, 13073 is space debris in LEO originally from a launch on Thu, 04 Jun 1981 UTC launched from the Plesetsk Missile And Space Complex (PKMTR). Debris objects in space refer to the collection of defunct objects orbiting the Earth. Examples of debris include non-operational satellites, rocket bodies, and fragments generated from explosions, collisions, or faulty payload assembly.

Loading next visibility...
Identifier
13073, 1981-053EZ
Orbit
LEO
Country
Flag of CISCIS
Related business
Manufacturer
Unknown
Mission
Spacecraft
Bus & Motor
Unknown
Mass
Unknown
Launch date (UTC)
1981-06-04 (45 years ago)
Launch vehicle
Unknown
Launch site
Plesetsk Missile And Space Complex (PKMTR)
Object type
Payload
Rocket body
Debris
Shape & HBR
Unknown shape, 0.1 m
Radar Cross Section
Small (<0.1 m²)

Expand to show TLE details & history
Last TLE update: 14 hours ago

TLE from 14 hours ago
0 COSMOS 1275 DEB
1 13073U 81053EZ  25349.99750718  .00000158  00000-0  15300-3 0  9996
2 13073  82.9388  74.4707 0086322 252.6412 282.4567 13.72386222220202
Epoch: 2025-12-15T23:56Z
TLE epoch observation values (Epoch: 2025-12-15T23:56:24.620Z)
Latitude
5.74566°
Longitude
169.76966°
Altitude
980.152 km
Speed
7.369 km/s
True Right ascension
16h 55m 02s
True Declination
5° 42' 45"
Sunlit
Object was in daylight at epoch
Visualization orbit readout
Latitude
Unknown
Longitude
Unknown
Altitude
Unknown
Speed
Unknown
Apparent Right ascension
Unknown
Apparent Declination
Unknown
Sunlit
N/A
Visualization observer readout
Local Sidereal Time
12:37:55
Azimuth
Unknown
Elevation
Unknown
Doppler factor
Unknown
Orbital elements
Apogee altitude
1,051.756 km
Perigee altitude
924.581 km
Semi-major axis
7,366.306 km
Eccentricity
0.00863
Inclination
82.9388°
RAAN
74.4707°
Arg. of periapsis
252.6412°
True anomaly
281.4886°
Mean anomaly
282.4567°
Eccentric anomaly
281.97287°
Mean motion
3.43296 °/min
Orbital period
104.87 mins
BSTAR
0.000153
Loading maneuver chart data...
Computing Atmospheric mass density...
Loading historical data...
Loading historical data...
Loading historical data...
Loading historical data...
Loading historical data...
Loading historical data...
Loading historical data...

Documentation

Showing up to 5 results
|